| time (UTC) | temp C | wind direction | speed KPH | gust KPH | rain 1hr cm | rain 24hr cm | rain mn cm | humidity % | barometer mb |
| 20260906100030 | 10 | 162 | 0.0 | 4.8 | 0.00 | 0.00 | 0.00 | 78 | 1017.0 |
| 20260906094527 | 9 | 161 | 0.0 | 1.6 | 0.00 | 0.00 | 0.00 | 81 | 1017.3 |
| 20260906093027 | 8 | 162 | 0.0 | 1.6 | 0.00 | 0.00 | 0.00 | 83 | 1017.5 |
| 20260906091533 | 8 | 162 | 0.0 | 3.2 | 0.00 | 0.00 | 0.00 | 83 | 1017.1 |
| 20260906090028 | 8 | 161 | 0.0 | 0.0 | 0.00 | 0.00 | 0.00 | 84 | 1017.0 |
| 20260906084526 | 7 | 162 | 0.0 | 0.0 | 0.00 | 0.00 | 0.00 | 87 | 1017.6 |
| 20260906083023 | 7 | 162 | 0.0 | 1.6 | 0.00 | 0.00 | 0.00 | 85 | 1017.4 |
| 20260906081535 | 7 | 161 | 0.0 | 1.6 | 0.00 | 0.00 | 0.00 | 83 | 1017.0 |
| 20260906080018 | 8 | 162 | 0.0 | 3.2 | 0.00 | 0.00 | 0.00 | 81 | 1017.0 |
| 20260906074520 | 9 | 162 | 0.0 | 0.0 | 0.00 | 0.00 | 0.00 | 81 | 1017.2 |
| 20260906073015 | 9 | 162 | 0.0 | 0.0 | 0.00 | 0.00 | 0.00 | 82 | 1017.6 |
| 20260906071514 | 8 | 162 | 0.0 | 0.0 | 0.00 | 0.00 | 0.00 | 83 | 1017.7 |
| 20260906070013 | 8 | 162 | 0.0 | 0.0 | 0.00 | 0.00 | 0.00 | 82 | 1017.5 |
| 20260906064511 | 9 | 162 | 0.0 | 0.0 | 0.00 | 0.00 | 0.00 | 80 | 1017.5 |
| 20260906063008 | 8 | 161 | 0.0 | 0.0 | 0.00 | 0.00 | 0.00 | 82 | 1017.3 |
| 20260906061508 | 8 | 161 | 0.0 | 1.6 | 0.00 | 0.00 | 0.00 | 82 | 1017.3 |
| 20260906060014 | 8 | 162 | 0.0 | 0.0 | 0.00 | 0.00 | 0.00 | 81 | 1017.4 |
| 20260906054505 | 8 | 162 | 0.0 | 1.6 | 0.00 | 0.00 | 0.00 | 81 | 1017.4 |
| 20260906053010 | 9 | 162 | 0.0 | 1.6 | 0.00 | 0.00 | 0.00 | 79 | 1017.3 |
| 20260906051505 | 10 | 162 | 0.0 | 0.0 | 0.00 | 0.00 | 0.00 | 78 | 1017.3 |
| 20260906050013 | 10 | 161 | 0.0 | 1.6 | 0.00 | 0.00 | 0.00 | 76 | 1017.2 |
| 20260906044503 | 11 | 162 | 0.0 | 1.6 | 0.00 | 0.00 | 0.00 | 74 | 1017.2 |
| 20260906043003 | 11 | 162 | 0.0 | 1.6 | 0.00 | 0.00 | 0.00 | 76 | 1017.1 |
| 20260906041502 | 11 | 162 | 0.0 | 0.0 | 0.00 | 0.00 | 0.00 | 73 | 1017.0 |
| 20260906040002 | 12 | 162 | 0.0 | 1.6 | 0.00 | 0.00 | 0.00 | 67 | 1016.9 |
| 20260906034600 | 12 | 162 | 0.0 | 4.8 | 0.00 | 0.00 | 0.00 | 68 | 1016.8 |
| 20260906033100 | 12 | 161 | 0.0 | 1.6 | 0.00 | 0.00 | 0.00 | 67 | 1016.8 |
| 20260906031604 | 14 | 162 | 1.6 | 9.7 | 0.00 | 0.00 | 0.00 | 59 | 1016.6 |
| 20260906030058 | 14 | 162 | 0.0 | 4.8 | 0.00 | 0.00 | 0.00 | 62 | 1016.3 |
| 20260906024557 | 15 | 162 | 0.0 | 1.6 | 0.00 | 0.00 | 0.00 | 60 | 1016.2 |
| 20260906023059 | 16 | 162 | 0.0 | 3.2 | 0.00 | 0.00 | 0.00 | 55 | 1016.0 |
| 20260906021556 | 16 | 162 | 0.0 | 0.0 | 0.00 | 0.00 | 0.00 | 52 | 1015.9 |
| 20260906014555 | 20 | 162 | 1.6 | 4.8 | 0.00 | 0.00 | 0.00 | 41 | 1015.5 |
| 20260906013054 | 21 | 161 | 1.6 | 9.7 | 0.00 | 0.00 | 0.00 | 38 | 1015.4 |
| 20260906011552 | 21 | 162 | 3.2 | 8.0 | 0.00 | 0.00 | 0.00 | 37 | 1015.2 |
| 20260906010052 | 22 | 162 | 1.6 | 9.7 | 0.00 | 0.00 | 0.00 | 37 | 1015.3 |
| 20260906004552 | 22 | 162 | 3.2 | 9.7 | 0.00 | 0.00 | 0.00 | 35 | 1015.2 |
| 20260906003050 | 22 | 162 | 1.6 | 6.4 | 0.00 | 0.00 | 0.00 | 37 | 1015.1 |
| 20260906001549 | 22 | 162 | 3.2 | 9.7 | 0.00 | 0.00 | 0.00 | 36 | 1015.2 |
| 20260906000048 | 22 | 162 | 0.0 | 4.8 | 0.00 | 0.00 | 0.00 | 37 | 1015.2 |
| 20260905234546 | 22 | 162 | 0.0 | 3.2 | 0.00 | 0.00 | 0.00 | 38 | 1015.4 |
| 20260905233048 | 22 | 161 | 1.6 | 4.8 | 0.00 | 0.00 | 0.00 | 36 | 1015.6 |
| 20260905231544 | 22 | 162 | 3.2 | 6.4 | 0.00 | 0.00 | 0.00 | 36 | 1015.7 |
| 20260905230049 | 22 | 162 | 3.2 | 6.4 | 0.00 | 0.00 | 0.00 | 35 | 1015.8 |
| 20260905224559 | 22 | 162 | 1.6 | 6.4 | 0.00 | 0.00 | 0.00 | 35 | 1015.9 |
| 20260905223038 | 22 | 162 | 0.0 | 6.4 | 0.00 | 0.00 | 0.00 | 37 | 1016.1 |
| 20260905221544 | 21 | 162 | 1.6 | 6.4 | 0.00 | 0.00 | 0.00 | 39 | 1016.2 |
| 20260905220039 | 21 | 162 | 3.2 | 8.0 | 0.00 | 0.00 | 0.00 | 38 | 1016.4 |
| 20260905214534 | 21 | 161 | 4.8 | 8.0 | 0.00 | 0.00 | 0.00 | 39 | 1016.4 |
| 20260905213033 | 21 | 162 | 1.6 | 12.9 | 0.00 | 0.00 | 0.00 | 40 | 1016.4 |
| 20260905211531 | 22 | 162 | 4.8 | 12.9 | 0.00 | 0.00 | 0.00 | 39 | 1016.6 |
| 20260905210030 | 21 | 162 | 1.6 | 6.4 | 0.00 | 0.00 | 0.00 | 41 | 1016.7 |
| 20260905204531 | 22 | 162 | 3.2 | 6.4 | 0.00 | 0.00 | 0.00 | 41 | 1016.9 |
| 20260905203028 | 21 | 162 | 0.0 | 4.8 | 0.00 | 0.00 | 0.00 | 44 | 1017.1 |
| 20260905201526 | 21 | 162 | 4.8 | 11.3 | 0.00 | 0.00 | 0.00 | 43 | 1017.2 |
| 20260905200025 | 20 | 162 | 0.0 | 8.0 | 0.00 | 0.00 | 0.00 | 45 | 1017.5 |
| 20260905194522 | 20 | 162 | 3.2 | 6.4 | 0.00 | 0.00 | 0.00 | 51 | 1017.7 |
| 20260905193026 | 19 | 162 | 1.6 | 6.4 | 0.00 | 0.00 | 0.00 | 49 | 1017.8 |
| 20260905191518 | 19 | 162 | 0.0 | 3.2 | 0.00 | 0.00 | 0.00 | 53 | 1018.1 |
| 20260905190014 | 18 | 162 | 1.6 | 9.7 | 0.00 | 0.00 | 0.00 | 55 | 1018.4 |
| 20260905184512 | 17 | 162 | 0.0 | 4.8 | 0.00 | 0.00 | 0.00 | 57 | 1018.5 |
| 20260905183009 | 16 | 162 | 1.6 | 6.4 | 0.00 | 0.00 | 0.00 | 60 | 1018.8 |
| 20260905181505 | 16 | 162 | 0.0 | 3.2 | 0.00 | 0.00 | 0.00 | 61 | 1019.0 |
| 20260905180001 | 15 | 162 | 0.0 | 4.8 | 0.00 | 0.00 | 0.00 | 65 | 1019.1 |
| 20260905174557 | 14 | 162 | 0.0 | 6.4 | 0.00 | 0.00 | 0.00 | 67 | 1019.3 |
| 20260905173056 | 13 | 162 | 0.0 | 3.2 | 0.00 | 0.00 | 0.00 | 71 | 1019.6 |
| 20260905171550 | 11 | 162 | 0.0 | 1.6 | 0.00 | 0.00 | 0.00 | 78 | 1019.7 |
| 20260905170046 | 10 | 162 | 0.0 | 3.2 | 0.00 | 0.00 | 0.00 | 80 | 1019.9 |
| 20260905164545 | 9 | 162 | 0.0 | 0.0 | 0.00 | 0.00 | 0.00 | 82 | 1019.9 |
| 20260905163044 | 9 | 162 | 0.0 | 1.6 | 0.00 | 0.00 | 0.00 | 82 | 1019.8 |
| 20260905161543 | 8 | 162 | 0.0 | 1.6 | 0.00 | 0.00 | 0.00 | 84 | 1019.8 |
| 20260905160109 | 8 | 162 | 0.0 | 1.6 | 0.00 | 0.00 | 0.00 | 85 | 1019.9 |
| 20260905154547 | 8 | 162 | 0.0 | 1.6 | 0.00 | 0.00 | 0.00 | 84 | 1019.9 |
| 20260905153042 | 9 | 162 | 0.0 | 1.6 | 0.00 | 0.00 | 0.00 | 81 | 1020.1 |
| 20260905151539 | 9 | 162 | 0.0 | 0.0 | 0.00 | 0.00 | 0.00 | 84 | 1020.1 |
| 20260905150036 | 8 | 162 | 0.0 | 1.6 | 0.00 | 0.00 | 0.00 | 87 | 1020.3 |
| 20260905144534 | 6 | 162 | 0.0 | 1.6 | 0.00 | 0.03 | 0.00 | 92 | 1020.3 |
| 20260905143034 | 6 | 162 | 0.0 | 0.0 | 0.00 | 0.03 | 0.00 | 95 | 1020.2 |
| 20260905141537 | 5 | 161 | 0.0 | 0.0 | 0.00 | 0.03 | 0.00 | 96 | 1020.0 |
| 20260905140031 | 4 | 162 | 0.0 | 0.0 | 0.00 | 0.03 | 0.00 | 96 | 1019.8 |
| 20260905134530 | 3 | 162 | 0.0 | 0.0 | 0.00 | 0.03 | 0.00 | 96 | 1019.6 |
| 20260905133028 | 3 | 162 | 0.0 | 0.0 | 0.00 | 0.03 | 0.00 | 96 | 1019.6 |
| 20260905131526 | 2 | 161 | 0.0 | 0.0 | 0.00 | 0.03 | 0.00 | 96 | 1019.4 |
| 20260905130024 | 2 | 162 | 0.0 | 0.0 | 0.00 | 0.03 | 0.00 | 95 | 1019.0 |
| 20260905124528 | 2 | 162 | 0.0 | 0.0 | 0.00 | 0.03 | 0.00 | 95 | 1018.9 |
| 20260905123019 | 2 | 162 | 0.0 | 0.0 | 0.00 | 0.03 | 0.00 | 95 | 1018.7 |
| 20260905121517 | 2 | 162 | 0.0 | 0.0 | 0.00 | 0.03 | 0.00 | 94 | 1018.5 |
| 20260905120015 | 2 | 162 | 0.0 | 0.0 | 0.00 | 0.03 | 0.00 | 94 | 1018.4 |
| 20260905114514 | 3 | 162 | 0.0 | 0.0 | 0.00 | 0.03 | 0.00 | 93 | 1018.4 |
| 20260905113012 | 3 | 162 | 0.0 | 0.0 | 0.00 | 0.03 | 0.00 | 95 | 1018.1 |
| 20260905111510 | 3 | 162 | 0.0 | 0.0 | 0.00 | 0.03 | 0.00 | 94 | 1018.2 |
| 20260905110010 | 3 | 162 | 0.0 | 0.0 | 0.00 | 0.03 | 0.00 | 94 | 1018.0 |
| 20260905104508 | 3 | 162 | 0.0 | 0.0 | 0.00 | 0.05 | 0.00 | 95 | 1018.0 |
| 20260905103017 | 3 | 162 | 0.0 | 0.0 | 0.00 | 0.05 | 0.00 | 94 | 1018.0 |
| 20260905101505 | 3 | 162 | 0.0 | 0.0 | 0.00 | 0.05 | 0.00 | 93 | 1017.9 |